When you browse on this site, cookies collect data to enhance your experience and personalize the content and advertising you see.
Visit our Privacy Policy to learn more. By continuing to use the site, you agree to this use of cookies and data.
  • In Österreich
  • Länderverzeichnis
  • Für 7 Tage
  • Wassertemperatur
  • Satellitenkarten
  • Wetterkarte
  • News
  • Widgets
  • user-avatar
    Anmelden

    Stündliche Wetter Aschtarak

    Heute, 16 Februar, Samstag

    Zeit Temperatur Niederschläge Wind Luftdruck Luftfeuchtigkeit
    00:00 -1°C° 0 mm 2 m/S 654 mmHg 69%
    01:00 -1°C° 0.1 mm 2 m/S 654 mmHg 70%
    02:00 -1°C° 0.1 mm 2 m/S 654 mmHg 70%
    03:00 -1°C° 0 mm 2 m/S 654 mmHg 72%
    04:00 -1°C° 0.1 mm 2 m/S 654 mmHg 73%
    05:00 -2°C° 0.1 mm 2 m/S 654 mmHg 73%
    06:00 -2°C° 0.1 mm 2 m/S 654 mmHg 73%
    07:00 +1°C° 0.1 mm 1 m/S 654 mmHg 71%
    08:00 +1°C° 0.1 mm 1 m/S 655 mmHg 68%
    09:00 +2°C° 0 mm 1 m/S 655 mmHg 65%
    10:00 +3°C° 0.1 mm 1 m/S 655 mmHg 63%
    11:00 +3°C° 0.1 mm 2 m/S 655 mmHg 61%
    12:00 +3°C° 0.1 mm 2 m/S 655 mmHg 59%
    13:00 +3°C° 0.1 mm 3 m/S 655 mmHg 58%
    14:00 +3°C° 0.1 mm 3 m/S 654 mmHg 57%
    15:00 +3°C° 0.1 mm 3 m/S 654 mmHg 56%
    16:00 +3°C° 0.2 mm 3 m/S 655 mmHg 59%
    17:00 +3°C° 0.2 mm 2 m/S 655 mmHg 61%
    18:00 +2°C° 0.2 mm 2 m/S 655 mmHg 64%
    19:00 +2°C° 0.2 mm 2 m/S 655 mmHg 66%
    20:00 +1°C° 0.2 mm 2 m/S 655 mmHg 68%
    21:00 +1°C° 0.2 mm 2 m/S 656 mmHg 70%
    22:00 -1°C° 0.1 mm 2 m/S 656 mmHg 71%
    23:00 -1°C° 0.1 mm 2 m/S 656 mmHg 71%

    Morgen, 17 Februar, Sonntag

    Zeit Temperatur Niederschläge Wind Luftdruck Luftfeuchtigkeit
    00:00 0°C° 0.1 mm 1 m/S 656 mmHg 72%
    01:00 0°C° 0.1 mm 1 m/S 655 mmHg 72%
    02:00 -1°C° 0.1 mm 1 m/S 655 mmHg 73%
    03:00 -1°C° 0.1 mm 1 m/S 655 mmHg 73%
    04:00 -2°C° 0 mm 1 m/S 655 mmHg 73%
    05:00 -2°C° 0 mm 1 m/S 655 mmHg 73%
    06:00 -3°C° 0 mm 1 m/S 655 mmHg 73%
    07:00 -4°C° 0 mm 2 m/S 655 mmHg 70%
    08:00 -3°C° 0 mm 2 m/S 656 mmHg 67%
    09:00 -2°C° 0 mm 2 m/S 656 mmHg 64%
    10:00 -1°C° 0 mm 2 m/S 656 mmHg 60%
    11:00 0°C° 0 mm 3 m/S 656 mmHg 56%
    12:00 +1°C° 0 mm 3 m/S 656 mmHg 52%
    13:00 +2°C° 0 mm 3 m/S 656 mmHg 52%
    14:00 +2°C° 0 mm 3 m/S 656 mmHg 51%
    15:00 +3°C° 0 mm 3 m/S 656 mmHg 50%
    16:00 +1°C° 0 mm 3 m/S 656 mmHg 52%
    17:00 +1°C° 0 mm 2 m/S 656 mmHg 55%
    18:00 -1°C° 0 mm 2 m/S 656 mmHg 57%
    19:00 -1°C° 0 mm 2 m/S 657 mmHg 58%
    20:00 0°C° 0 mm 1 m/S 657 mmHg 59%
    21:00 0°C° 0 mm 1 m/S 657 mmHg 61%
    22:00 -1°C° 0 mm 1 m/S 657 mmHg 61%
    23:00 -1°C° 0 mm 1 m/S 657 mmHg 62%

    übermorgen, 18 Februar, Montag

    Zeit Temperatur Niederschläge Wind Luftdruck Luftfeuchtigkeit
    00:00 -2°C° 0 mm 1 m/S 657 mmHg 63%
    01:00 -2°C° 0 mm 1 m/S 657 mmHg 63%
    02:00 -2°C° 0 mm 1 m/S 656 mmHg 63%
    03:00 -3°C° 0 mm 1 m/S 656 mmHg 64%
    04:00 -3°C° 0 mm 1 m/S 656 mmHg 64%
    05:00 -3°C° 0 mm 1 m/S 656 mmHg 64%
    06:00 -3°C° 0 mm 1 m/S 655 mmHg 64%
    07:00 -2°C° 0 mm 1 m/S 655 mmHg 62%
    08:00 -1°C° 0 mm 1 m/S 655 mmHg 60%
    09:00 0°C° 0 mm 1 m/S 656 mmHg 58%
    10:00 -1°C° 0 mm 2 m/S 655 mmHg 57%
    11:00 +1°C° 0 mm 2 m/S 654 mmHg 55%
    12:00 +1°C° 0 mm 3 m/S 654 mmHg 54%
    13:00 +2°C° 0 mm 3 m/S 653 mmHg 53%
    14:00 +3°C° 0 mm 3 m/S 653 mmHg 53%
    15:00 +3°C° 0 mm 3 m/S 653 mmHg 52%
    16:00 +2°C° 0 mm 3 m/S 653 mmHg 54%
    17:00 +2°C° 0 mm 3 m/S 653 mmHg 56%
    18:00 +1°C° 0 mm 3 m/S 653 mmHg 58%
    19:00 +1°C° 0 mm 2 m/S 653 mmHg 59%
    20:00 +1°C° 0 mm 2 m/S 653 mmHg 61%
    21:00 -1°C° 0 mm 2 m/S 653 mmHg 62%
    22:00 -1°C° 0 mm 2 m/S 653 mmHg 63%
    23:00 -2°C° 0 mm 2 m/S 653 mmHg 64%

    19 Februar, Dienstag

    Zeit Temperatur Niederschläge Wind Luftdruck Luftfeuchtigkeit
    00:00 -2°C° 0 mm 2 m/S 653 mmHg 65%
    01:00 -3°C° 0 mm 2 m/S 652 mmHg 65%
    02:00 -3°C° 0 mm 2 m/S 652 mmHg 65%
    03:00 -3°C° 0 mm 2 m/S 652 mmHg 66%
    04:00 -4°C° 0 mm 2 m/S 652 mmHg 66%
    05:00 -4°C° 0 mm 2 m/S 652 mmHg 67%
    06:00 -4°C° 0 mm 2 m/S 652 mmHg 67%
    07:00 -3°C° 0 mm 2 m/S 653 mmHg 65%
    08:00 -2°C° 0 mm 2 m/S 654 mmHg 63%
    09:00 -1°C° 0 mm 2 m/S 654 mmHg 62%
    10:00 +1°C° 0 mm 2 m/S 654 mmHg 58%
    11:00 +1°C° 0 mm 3 m/S 655 mmHg 55%
    12:00 +2°C° 0 mm 3 m/S 655 mmHg 51%
    13:00 +3°C° 0 mm 3 m/S 655 mmHg 50%
    14:00 +3°C° 0 mm 3 m/S 655 mmHg 48%
    15:00 +3°C° 0 mm 4 m/S 655 mmHg 46%
    16:00 +2°C° 0 mm 3 m/S 656 mmHg 47%
    17:00 +1°C° 0 mm 3 m/S 656 mmHg 48%
    18:00 -1°C° 0 mm 2 m/S 657 mmHg 49%
    19:00 -2°C° 0 mm 2 m/S 657 mmHg 50%
    20:00 -2°C° 0 mm 2 m/S 658 mmHg 51%
    21:00 -3°C° 0 mm 2 m/S 659 mmHg 51%
    22:00 -3°C° 0 mm 2 m/S 659 mmHg 52%
    23:00 -4°C° 0 mm 2 m/S 659 mmHg 52%

    20 Februar, Mittwoch

    Zeit Temperatur Niederschläge Wind Luftdruck Luftfeuchtigkeit
    00:00 -4°C° 0 mm 2 m/S 659 mmHg 52%
    01:00 -5°C° 0 mm 2 m/S 659 mmHg 53%
    02:00 -5°C° 0 mm 2 m/S 660 mmHg 53%
    03:00 -3°C° 0 mm 1 m/S 660 mmHg 54%
    04:00 -3°C° 0 mm 1 m/S 660 mmHg 53%
    05:00 -4°C° 0 mm 1 m/S 660 mmHg 53%
    06:00 -4°C° 0 mm 1 m/S 660 mmHg 53%
    07:00 -2°C° 0 mm 1 m/S 660 mmHg 51%
    08:00 -1°C° 0 mm 1 m/S 661 mmHg 49%
    09:00 0°C° 0 mm 1 m/S 661 mmHg 47%
    10:00 +1°C° 0 mm 1 m/S 661 mmHg 45%
    11:00 +3°C° 0 mm 1 m/S 661 mmHg 43%
    12:00 +4°C° 0 mm 1 m/S 661 mmHg 41%
    13:00 +3°C° 0 mm 2 m/S 660 mmHg 41%
    14:00 +4°C° 0 mm 2 m/S 660 mmHg 40%
    15:00 +4°C° 0 mm 2 m/S 660 mmHg 40%
    16:00 +3°C° 0 mm 2 m/S 660 mmHg 40%
    17:00 +2°C° 0 mm 1 m/S 660 mmHg 41%
    18:00 +1°C° 0 mm 1 m/S 660 mmHg 41%
    19:00 0°C° 0 mm 1 m/S 660 mmHg 40%
    20:00 0°C° 0 mm 1 m/S 660 mmHg 39%
    21:00 -1°C° 0 mm 1 m/S 660 mmHg 39%
    22:00 -1°C° 0 mm 1 m/S 660 mmHg 38%
    23:00 -2°C° 0 mm 1 m/S 660 mmHg 38%

    21 Februar, Donnerstag

    Zeit Temperatur Niederschläge Wind Luftdruck Luftfeuchtigkeit
    00:00 -2°C° 0 mm 1 m/S 660 mmHg 38%
    01:00 -2°C° 0 mm 1 m/S 659 mmHg 40%
    02:00 -2°C° 0 mm 1 m/S 659 mmHg 42%
    03:00 -3°C° 0 mm 1 m/S 659 mmHg 44%
    04:00 -3°C° 0 mm 1 m/S 659 mmHg 46%
    05:00 -3°C° 0 mm 1 m/S 659 mmHg 48%
    06:00 -3°C° 0 mm 1 m/S 658 mmHg 50%
    07:00 -2°C° 0 mm 1 m/S 659 mmHg 49%
    08:00 -1°C° 0 mm 1 m/S 659 mmHg 48%
    09:00 +1°C° 0 mm 1 m/S 659 mmHg 47%
    10:00 +2°C° 0 mm 1 m/S 659 mmHg 45%
    11:00 +3°C° 0 mm 1 m/S 658 mmHg 42%
    12:00 +4°C° 0 mm 1 m/S 658 mmHg 39%
    13:00 +4°C° 0 mm 1 m/S 658 mmHg 39%
    14:00 +5°C° 0 mm 1 m/S 657 mmHg 38%
    15:00 +5°C° 0 mm 1 m/S 657 mmHg 38%
    16:00 +4°C° 0 mm 1 m/S 657 mmHg 37%
    17:00 +2°C° 0 mm 1 m/S 657 mmHg 37%
    18:00 +1°C° 0 mm 1 m/S 657 mmHg 37%
    19:00 0°C° 0 mm 1 m/S 657 mmHg 37%
    20:00 0°C° 0 mm 1 m/S 657 mmHg 36%
    21:00 -1°C° 0 mm 1 m/S 658 mmHg 36%
    22:00 -1°C° 0 mm 1 m/S 658 mmHg 38%
    23:00 -1°C° 0 mm 1 m/S 658 mmHg 41%
    Mehr zeigen